Regional Weather Roundup
Issued by NWS Upton, NY

Current Version | Previous Version | Graphics & Text | Print | Product List | Glossary Off
Versions: 1 2 3 4 5 6 7 8 9 10 11 12 13 14 15 16 17 18 19 20 21 22 23 24 25 26 27 28 29 30 31 32 33 34 35 36 37 38 39 40 41 42 43 44 45 46 47 48 49 50

000
ASUS41 KOKX 210207
RWROKX

REGIONAL WEATHER ROUNDUP
NATIONAL WEATHER SERVICE NEW YORK NY
1000 PM EDT MON APR 20 2015

NOTE: "FAIR" INDICATES FEW OR NO CLOUDS BELOW 12,000 FEET WITH NO
SIGNIFICANT WEATHER AND/OR OBSTRUCTIONS TO VISIBILITY.

NYZ071-072-176-178-NJZ106-104-210300-
NEW YORK CITY METRO AREA


CITY           SKY/WX    TMP DP  RH WIND       PRES   REMARKS
CENTRAL PARK   FOG       52  52 100 VRB6      29.65F VSB 3/4
LAGUARDIA APRT FOG       51  50  96 NE8       29.64R VSB 1/4
KENNEDY INTL   FOG       53  52  96 CALM      29.65S VSB 1/8
NEWARK/LIBERTY FOG       53  52  96 VRB6      29.62S VSB 1/4
BRNX BOT. GARD   N/A     52  52 100 NE2       29.66R
TETERBORO      FOG       55  53  93 E5        29.62R VSB 1/4
$$

NYZ177-179-078>081-210300-
LONG ISLAND NEW YORK

CITY           SKY/WX    TMP DP  RH WIND       PRES   REMARKS
FARMINGDALE    FOG       55  54  96 E5        29.65S VSB 1/4
ISLIP          FOG       54  53  97 E7        29.64F VSB 1/8
SHIRLEY        FOG       53  52  96 SE7       29.67F VSB 1/2
WESTHAMPTON    FOG       52  51  97 SE8       29.68S VSB 1/2
MONTAUK POINT    N/A     52  50  93 SE13G23   29.70F
$$

NYZ052-065-067-210300-
HUDSON VALLEY

CITY           SKY/WX    TMP DP  RH WIND       PRES   REMARKS
WHITE PLAINS   FOG       54  53  97 E5        29.64F VSB 1/4
NEWBURGH       CLOUDY    54  54 100 E9        29.65S FOG
MONTGOMERY     CLOUDY    53  32  44 N6        29.63S FOG
POUGHKEEPSIE   CLOUDY    56  51  84 VRB5      29.64S
ALBANY         CLOUDY    53  46  77 CALM      29.66F
$$

NJZ001-105-106-008-010-013-015-019>022-104-210300-
NEW JERSEY

CITY           SKY/WX    TMP DP  RH WIND       PRES   REMARKS
NEWARK/LIBERTY FOG       53  52  96 VRB6      29.62S VSB 1/4
TETERBORO      FOG       55  53  93 E5        29.62R VSB 1/4
CALDWELL       FOG       55  54  96 E7        29.63R VSB 1/2
MORRISTOWN     FOG       57  57 100 NE5       29.63R VSB 1/2
SOMERVILLE     CLOUDY    58  55  90 N3        29.58F FOG
SUSSEX         CLOUDY    55  53  93 NE6       29.63S FOG
ANDOVER          N/A     55  54  96 N3        29.61F
TRENTON        CLOUDY    59  56  89 E5        29.58F FOG
MILLVILLE      CLOUDY    62  58  86 SE6       29.58F
ATLANTIC CITY  CLOUDY    59  55  87 S10       29.61S
WRIGHTSTOWN    CLOUDY    62  61  96 SE7       29.56S
TOMS RIVER     CLOUDY    59  55  88 S7        29.61S
BELMAR         CLOUDY    55  50  82 SE7       29.60F
$$

PAZ047>061-062-071-210300-
EASTERN PENNSYLVANIA

CITY           SKY/WX    TMP DP  RH WIND       PRES   REMARKS
PHILADELPHIA   CLOUDY    68  61  78 SE7       29.56F
ALLENTOWN      LGT RAIN  60  57  89 E9        29.57F FOG
SCRANTON       CLOUDY    58  53  84 N9        29.56S
$$

CTZ002-004>006-009-010-012-RIZ004-006-007-MAZ004-011-015-210300-
SOUTHERN NEW ENGLAND
 IN CT

CITY           SKY/WX    TMP DP  RH WIND       PRES   REMARKS
BRADLEY INTL   LGT RAIN  51  49  92 N9        29.70F FOG
HARTFORD       LGT RAIN  54  53  97 VRB5      29.70F FOG
DANBURY        CLOUDY    53  52  96 E8        29.67F FOG
WTRBRY/OXFORD  CLOUDY    54  48  82 E6        29.70R
BRIDGEPORT     CLOUDY    52  51  97 NE12      29.67S FOG
MERIDEN        LGT RAIN  54  52  93 CALM      29.70F FOG
NEW HAVEN      CLOUDY    52  52 100 E8        29.68F FOG
CHESTER        FOG       52  52 100 SE7       29.70F VSB 1/2
GROTON         LGT RAIN  51  50  96 SE22G28   29.68F FOG
WILLIMANTIC    LGT RAIN  56  54  93 MISG      29.71F FOG

 IN RI

CITY           SKY/WX    TMP DP  RH WIND       PRES   REMARKS
PROVIDENCE     LGT RAIN  54  53  97 S18G29    29.73F
BLOCK ISLAND   CLOUDY    50  46  87 SE22G31   29.70F VSB 1/2
WESTERLY       LGT RAIN  51  50  96 SE14G24   29.71F VSB 1

 IN MA

CITY           SKY/WX    TMP DP  RH WIND       PRES   REMARKS
BOSTON         LGT RAIN  51  50  96 SE18      29.79F FOG
WORCESTER      LGT RAIN  47  46  97 NE6       29.75F VSB 1/2
WESTFIELD      LGT RAIN  48  46  93 N9        29.72F FOG
PROVINCETOWN   CLOUDY   N/A N/A N/A SE22G36   29.81F
NANTUCKET      CLOUDY    51  49  92 SE30G37   29.80F FOG
$$

ANZ330-335-338-340-345-350-353-355-210300-
COASTAL MARINE OBSERVATIONS


STATION/POSITION TIME  SKY/WX   TEMP    WIND        PRES    VSBY  WAVE
                                AIR SEA DIR/SP/G                  HT/PER
                 (UTC)          (F)     (DEG/KT/KT) (MB)    (MI)  (FT/S)
NY HARB ENTRANCE 0150            47 44  170/  6/  8 1002.9          9/10
4S FIRE IS       0103               43                N/A          10/10
20S FIRE ISLAND  0050               43              1004.5         10/10
23SW MTP         NOT AVBL
HUDSON CANYON    NOT AVBL
EXECUTION ROCKS  NOT AVBL
WESTERN LI SOUND NOT AVBL
CENTRAL LI SOUND NOT AVBL
EASTERN LI SOUND 0100            47     120/ 14/ 19   N/A
ROBBINS REEF     0100            53     110/ 11/ 12 1001.8
$$


>>>>>>>>>>>>>>>>>>>>>>>>>>>> KEY <<<<<<<<<<<<<<<<<<<<<<<<<<<
>                                                          <
>     SKY/WX - SKY CONDITION/PRESENT WEATHER               <
>     TMP    - TEMPERATURE IN FAHRENHEIT                   <
>     DP     - DEWPOINT IN FAHRENHEIT                      <
>     RH     - RELATIVE HUMIDITY IN PERCENT                <
>     WIND   - DIRECTION AND SPEED IN MPH                  <
>     PRES   - MEAN SEA LEVEL PRESSURE IN INCHES OF HG     <
>     WCI    - WIND CHILL INDEX                            <
>     VSB    - VISIBILITY IN MILES                         <
>     HX     - HEAT INDEX                                  <
>     TC     - TEMPERATURE IN CELSIUS                      <
>     VRB    - VARIABLE WIND DIRECTION                     <
>                                                          <
>>>>>>>>>>>>>>>>>>>>>>>>>>>> KEY <<<<<<<<<<<<<<<<<<<<<<<<<<<




USA.gov is the U.S. government's official web portal to all federal, state and local government web resources and services.